Other Public Products
Issued by NWS Charleston, SC

Current Version | Previous Version | Graphics & Text | Print | Product List | Glossary On
Versions: 1 2 3 4 5 6 7 8 9 10 11 12 13 14 15 16 17 18 19 20 21 22 23 24 25 26 27 28 29 30 31 32 33 34 35 36 37 38 39 40 41 42 43 44 45 46 47 48 49 50
471
FPUS82 KCHS 230212
OPUCHS

TEST...KCHS/KSAV Gateway Observations...TEST
National Weather Service Charleston SC
1000 PM EDT MON MAY 22 2017

NOTE: "fair" indicates few or no clouds below 12,000 feet with no
significant weather and/or obstructions to visibility.

SCZ050-WAZ558-NCZ071-TXZ119-213-PAZ071-DCZ001-FLZ074-172-MI076-
NYZ176-178-MAZ016-IL014-TNZ027-NJZ106-GAZ044-MD014-230300-

...Gateway Observations for Charleston International...

CITY           SKY/WX    TMP DP  RH WIND       PRES   REMARKS
Chas Airport   CLOUDY    75  72  90 CALM      29.97S
Seattle        MOSUNNY   80  51  36 N6        30.05S
Charlotte      CLOUDY    70  64  81 CALM      29.98R
Dallas DFW     CLOUDY    72  62  71 SE13      29.90R
Dallas Love    CLOUDY    72  60  66 SE15      29.91R
Philladelphia  CLOUDY    66  61  84 VRB6      29.98S
Wash National  CLOUDY    68  64  87 CALM      29.97S
Baltimore      CLOUDY    62  62 100 CALM      29.97F
Miami          CLEAR     80  69  69 SE7       30.04R
Detroit        MOCLDY    61  48  62 S7        29.98R
Newark         CLOUDY    60  59  96 W5        29.97R
Laguardia      CLOUDY    62  59  90 W7        29.96R
J F K          CLOUDY    61  61 100 CALM      29.98R FOG
Boston Logan   DRIZZLE   52  52 100 NE3       30.01F FOG
Ft. Lauderdale PTCLDY    80  69  69 SE9       30.02R
Chicago O`Hare MOCLDY    63  53  70 SW13G23   29.91R
Chicago Midway CLOUDY    64  52  64 SW21G28   29.92S
Houston Bush   CLOUDY    70  65  84 N9        29.87R
Houston Hobby  CLOUDY    72  67  84 N10       29.85R
Nashville      CLOUDY    68  54  60 NE6       29.98R
Atlanta        LGT RAIN  70  67  90 CALM      29.96S

$$

GAZ044-118-TXZ119-213-NCZ071-DCZ001-MDZ014-506-PAZ021-071-NJZ106-
NYZ176-178-MAZ106-OHZ011-021-055-MIZ076-KYZ091-ILZ014-INZ047-
MNZ060-ONZ431-230300-

...Gateway Observations for Savannah International...

CITY           SKY/WX    TMP DP  RH WIND       PRES   REMARKS
Savannah Arpt  CLOUDY    73  70  90 N5        29.96S THUNDER
Atlanta        LGT RAIN  70  67  90 CALM      29.96S
Charlotte      CLOUDY    70  64  81 CALM      29.98R
Dallas DFW     CLOUDY    72  62  71 SE13      29.90R
Houston Bush   CLOUDY    70  65  84 N9        29.87R
Wash National  CLOUDY    68  64  87 CALM      29.97S
Wash Dulles    MOCLDY    65  62  90 SW5       30.00R
Baltimore      CLOUDY    62  62 100 CALM      29.97F
Philadelphia   CLOUDY    66  61  84 VRB6      29.98S
Newark         CLOUDY    60  59  96 W5        29.97R
Laguardia      CLOUDY    62  59  90 W7        29.96R
J F K          CLOUDY    61  61 100 CALM      29.98R FOG
Boston         DRIZZLE   52  52 100 NE3       30.01F FOG
Pittsburg      MOCLDY    58  46  64 W3        30.05R
Akron          PTCLDY    57  47  69 S6        30.04R
Cleveland      PTCLDY    63  47  55 S7        30.03R
Cincinnati     CLOUDY    57  46  66 SE3       30.02S
Columbus       CLEAR     57  49  74 SE5       30.02F
Detroit        MOCLDY    61  48  62 S7        29.98R
Chicago O`Hare MOCLDY    63  53  70 SW13G23   29.91R
Minneapolis    CLOUDY    59  41  51 NW7       29.82R
Indianapolis   CLOUDY    67  44  43 CALM      29.98F
Toronto Canada CLEAR     57  46  67 SW10      29.96R

$$




USA.gov is the U.S. government's official web portal to all federal, state and local government web resources and services.